[[{"header":{"parameterUnit":"m.s-1","parameterCategory":1,"la1":30.2991,"la2":30.254,"lo1":-89.0895,"lo2":-89.0444,"dy":0.0017,"dx":0.0017,"nx":28,"ny":28,"refTime":"2026-02-02T09:00:00:Z","depth":0,"parameterNumber":2,"parameterNumberName":"U-component_of_WINDS"},"data":[0,0,0,0,0,0,0,0,0,0,0,0,0,0,0,0,0,0,0,0,0,0,0,0,0,0,0,0,0,0,0,0,0,0,0,0,0,0,0,0,0,0,0,0,0,0,0,0,0,0,0,0,0,0,0,0,0,0,1.6082,1.6083,0,1.6156,1.6157,1.6158,1.6159,1.6158,1.6157,1.6157,1.6233,1.6236,1.6239,0,0,0,0,0,0,0,0,0,0,0,0,0,1.5945,1.5947,1.6082,1.6083,1.6084,1.6156,1.6157,1.6158,1.6159,1.6158,1.6157,1.6156,1.6232,1.6236,1.6239,0,0,0,0,0,0,0,0,0,0,0,0,0,1.601,1.5948,1.6082,1.6094,1.6095,1.6156,1.6157,1.6158,1.616,1.6158,1.6157,1.6156,1.6231,1.6235,1.624,1.6294,0,0,1.6253,1.6255,0,0,0,0,0,0,0,0,1.6006,1.6015,1.6091,1.6093,1.6095,1.6147,1.6136,1.6204,1.616,1.6135,1.6157,1.6155,1.6206,1.6212,1.6229,1.6297,1.6301,1.6253,1.6256,1.6258,1.6259,0,0,0,0,0,0,0,1.6002,1.6012,1.6111,1.6092,1.6095,1.6095,1.6103,1.6149,1.6177,1.6137,1.6138,1.6146,1.6207,1.6225,1.6231,1.6302,1.6253,1.6257,1.626,1.6261,1.6418,1.642,0,0,0,0,0,0,1.5995,1.6008,1.6109,1.6114,1.6046,1.6099,1.6108,1.6132,1.6177,1.6182,1.6147,1.6146,1.6218,1.6226,1.6233,1.63,1.6258,1.6262,1.6264,1.6417,1.6419,1.642,0,0,0,0,0,0,1.5992,1.6004,1.6106,1.6061,1.6074,1.6103,1.613,1.6134,1.6152,1.6184,1.619,1.6161,1.6217,1.6227,1.6279,1.6302,1.6264,1.6268,1.6415,1.6417,1.642,1.6432,0,0,0,0,0,0,1.5988,1.6003,1.6023,1.6061,1.6076,1.615,1.6131,1.6136,1.6159,1.6158,1.6198,1.6204,1.6217,1.6272,1.6283,1.6308,1.6271,1.6413,1.6416,1.6419,1.643,1.6435,1.6439,0,0,0,0,0,1.5983,1.6024,1.6024,1.6036,1.6103,1.6151,1.616,1.6174,1.6161,1.6182,1.6203,1.6202,1.6298,1.6277,1.629,1.6316,1.6411,1.6415,1.6419,1.6428,1.6434,1.6439,0,0,0,0,0,0,1.5988,1.6029,1.603,1.6085,1.6114,1.6151,1.6178,1.618,1.6214,1.6212,1.6229,1.6238,1.6288,1.6307,1.6284,1.6371,1.6353,1.6359,1.6356,1.6362,1.6367,1.6361,1.6275,0,0,0,0,0,1.5996,1.6031,1.6065,1.6111,1.6125,1.6149,1.6171,1.6179,1.6211,1.6224,1.6248,1.6279,1.6316,1.634,1.6376,1.6433,1.6441,1.6457,1.6461,1.6465,1.647,1.6501,1.6508,1.6432,1.6432,1.6432,0,0,1.6012,1.6039,1.606,1.6112,1.6136,1.6173,1.616,1.6199,1.6227,1.623,1.6279,1.6299,1.6334,1.6388,1.6413,1.6406,1.6493,1.6469,1.6472,1.6475,1.6505,1.6513,1.6519,1.6434,1.6434,1.6433,0,0,1.606,1.6084,1.6124,1.6148,1.6184,1.62,1.6209,1.6246,1.6259,1.6309,1.6312,1.6345,1.6409,1.6434,1.6455,1.6513,1.6513,1.6524,1.6548,1.6578,1.6584,1.6589,1.661,1.6617,1.6529,1.6529,1.6529,0,1.6075,1.613,1.6144,1.6184,1.6206,1.6211,1.6251,1.6274,1.6321,1.6337,1.6327,1.6407,1.6431,1.6491,1.6505,1.6522,1.6534,1.6519,1.6582,1.6587,1.6593,1.6612,1.662,1.653,1.653,1.653,1.653,0,1.6147,1.6185,1.6213,1.6257,1.6284,1.6324,1.6344,1.6369,1.6375,1.6392,1.6443,1.6472,1.6514,1.6529,1.6536,1.659,1.6584,1.6578,1.6561,1.6601,1.6619,1.6627,1.6532,1.6531,1.6531,1.6531,0,0,1.62,1.6251,1.6262,1.6282,1.6322,1.6352,1.6392,1.6433,1.6454,1.6486,1.652,1.6574,1.6568,1.6592,1.6602,1.6629,1.6672,1.6619,1.662,1.6628,1.6733,1.6737,1.6746,1.6673,1.6674,1.6675,1.673,0,1.6252,1.6323,1.6337,1.6399,1.6434,1.6439,1.6474,1.6503,1.652,1.6553,1.6571,1.6609,1.6599,1.6614,1.664,1.6661,1.6693,1.6657,1.6705,1.6706,1.6695,1.6755,1.676,1.681,1.6738,1.6739,1.674,0,1.6322,1.6355,1.642,1.6456,1.6471,1.6503,1.6541,1.6572,1.6605,1.6616,1.6642,1.6649,1.6691,1.6673,1.6731,1.6706,1.6727,1.674,1.6742,1.6747,1.6725,1.6761,1.6827,1.6834,1.6751,1.675,1.675,0,1.6353,1.6415,1.6462,1.6479,1.6522,1.6543,1.6562,1.6594,1.6617,1.6651,1.6666,1.6705,1.6726,1.6755,1.6772,1.6757,1.6829,1.6812,1.6839,1.6839,1.6854,1.6853,1.6923,1.6868,1.6868,1.6867,1.6867,0,1.6409,1.6449,1.6476,1.6505,1.655,1.6566,1.661,1.6629,1.6657,1.6689,1.6696,1.6727,1.6747,1.6781,1.6795,1.6841,1.685,1.686,1.6863,1.6859,1.6858,1.6872,1.6869,1.6869,1.6869,1.6869,1.6868,0,1.6452,1.6472,1.6523,1.656,1.657,1.6601,1.6632,1.6661,1.6678,1.6719,1.673,1.6756,1.6796,1.6816,1.6866,1.6875,1.6927,1.6929,1.6916,1.6917,1.6943,1.694,1.7025,1.7036,1.6974,1.6974,1.6975,0,1.6486,1.6517,1.6557,1.6579,1.6598,1.6634,1.6658,1.6675,1.67,1.674,1.6763,1.6803,1.6836,1.69,1.6924,1.6962,1.6964,1.6991,1.697,1.6965,1.6964,1.6962,1.6965,1.6995,1.6995,1.6996,1.6996,0,1.6545,1.6553,1.6587,1.6625,1.6653,1.6683,1.6713,1.6731,1.6754,1.6781,1.6822,1.6847,1.6898,1.6938,1.6978,1.6998,1.7001,1.7003,1.7011,1.7007,1.6998,1.7003,1.6926,1.7001,1.7,1.7,1.7,1.6999,1.6584,1.6611,1.6643,1.6681,1.6706,1.6734,1.6762,1.6782,1.6816,1.6859,1.6867,1.691,1.6943,1.6996,1.7018,1.7052,1.7046,1.7058,1.7061,1.7063,1.7064,1.6993,1.7059,1.7059,1.7059,1.7059,1.7059,0,1.6642,1.6663,1.6698,1.674,1.6769,1.677,1.6803,1.6828,1.6866,1.6895,1.6928,1.6975,1.7013,1.704,1.708,1.7102,1.7104,1.7111,1.711,1.7114,1.7068,1.7056,1.7109,1.7109,1.7109,1.7109,1.7109,1.7109,1.6676,1.6722,1.6734,1.6793,1.6814,1.6856,1.6875,1.6901,1.6925,1.6976,1.7009,1.7026,1.7055,1.7096,1.7132,1.7139,1.7153,1.716,1.7167,1.7123,1.7118,1.7112,1.7102,1.7163,1.7163,1.721,1.7211,1.7211]},{"header":{"parameterUnit":"m.s-1","parameterCategory":1,"la1":30.2991,"la2":30.254,"lo1":-89.0895,"lo2":-89.0444,"dy":0.0017,"dx":0.0017,"nx":28,"ny":28,"refTime":"2026-02-02T09:00:00:Z","depth":0,"parameterNumber":3,"parameterNumberName":"V-component_of_WINDS"},"data":[0,0,0,0,0,0,0,0,0,0,0,0,0,0,0,0,0,0,0,0,0,0,0,0,0,0,0,0,0,0,0,0,0,0,0,0,0,0,0,0,0,0,0,0,0,0,0,0,0,0,0,0,0,0,0,0,0,0,2.9765,2.9765,0,2.9724,2.9724,2.9723,2.9712,2.9712,2.9712,2.9713,2.9666,2.9664,2.9663,0,0,0,0,0,0,0,0,0,0,0,0,0,2.9828,2.9827,2.9765,2.9765,2.9764,2.9724,2.9724,2.9723,2.9712,2.9712,2.9713,2.9713,2.9666,2.9664,2.9663,0,0,0,0,0,0,0,0,0,0,0,0,0,2.9795,2.9827,2.9765,2.9754,2.9752,2.9724,2.9724,2.9723,2.9712,2.9712,2.9713,2.9713,2.9667,2.9665,2.9662,2.9641,0,0,2.9655,2.9655,0,0,0,0,0,0,0,0,2.9797,2.9793,2.9756,2.9755,2.9753,2.9724,2.9729,2.9695,2.9712,2.9727,2.9713,2.9713,2.9684,2.9681,2.9672,2.9639,2.9637,2.9655,2.9654,2.9653,2.9652,0,0,0,0,0,0,0,2.9799,2.9794,2.9749,2.9755,2.9754,2.9749,2.9745,2.9722,2.9704,2.9726,2.9725,2.972,2.9683,2.9674,2.9671,2.9636,2.9655,2.9653,2.9652,2.9651,2.9581,2.9581,0,0,0,0,0,0,2.9804,2.9796,2.975,2.9747,2.9777,2.9748,2.9743,2.9733,2.9704,2.97,2.972,2.972,2.9678,2.9673,2.9669,2.9641,2.9653,2.9651,2.965,2.9582,2.9581,2.958,0,0,0,0,0,0,2.9806,2.98,2.9752,2.9772,2.9765,2.9746,2.9735,2.9732,2.9722,2.97,2.9696,2.9714,2.9678,2.9672,2.9648,2.9639,2.965,2.9648,2.9582,2.9581,2.9581,2.9586,0,0,0,0,0,0,2.9808,2.9801,2.9794,2.9772,2.9764,2.9733,2.9734,2.973,2.9719,2.9719,2.9694,2.969,2.9678,2.9651,2.9646,2.9636,2.9646,2.9583,2.9582,2.9581,2.9586,2.9585,2.9584,0,0,0,0,0,2.981,2.9796,2.9794,2.9788,2.9756,2.9733,2.9728,2.9716,2.9719,2.971,2.9696,2.969,2.9641,2.9649,2.9643,2.9632,2.9583,2.9582,2.9581,2.9586,2.9585,2.9584,0,0,0,0,0,0,2.9816,2.9793,2.979,2.9769,2.9753,2.9731,2.972,2.9715,2.9697,2.9697,2.9681,2.9676,2.9652,2.964,2.9649,2.9609,2.9612,2.9609,2.9618,2.9617,2.9616,2.9619,2.9644,0,0,0,0,0,2.9816,2.9801,2.9781,2.9764,2.9756,2.974,2.9729,2.9722,2.9704,2.9696,2.968,2.9661,2.9641,2.9628,2.9609,2.9584,2.9577,2.9574,2.9573,2.9572,2.957,2.9554,2.9552,2.9577,2.9577,2.9577,0,0,2.9814,2.9799,2.979,2.9765,2.9752,2.9735,2.9734,2.9717,2.9703,2.9693,2.9669,2.9657,2.9634,2.9609,2.9598,2.9598,2.9562,2.9571,2.957,2.9568,2.9553,2.955,2.9548,2.9576,2.9576,2.9576,0,0,2.9801,2.9789,2.9774,2.9761,2.9741,2.973,2.9726,2.9704,2.9696,2.9672,2.9664,2.9646,2.9613,2.9597,2.9585,2.9565,2.9559,2.9559,2.9554,2.9538,2.9536,2.9534,2.9526,2.9523,2.9557,2.9557,2.9557,0,2.9801,2.9777,2.9766,2.9749,2.9737,2.9728,2.9711,2.9698,2.9672,2.9663,2.9665,2.9622,2.9607,2.9577,2.9572,2.9563,2.9556,2.9562,2.9538,2.9536,2.9534,2.9526,2.9523,2.9557,2.9557,2.9557,2.9557,0,2.9776,2.9759,2.9749,2.9726,2.9713,2.9695,2.968,2.9668,2.9661,2.9649,2.9624,2.9605,2.9581,2.9573,2.9566,2.9542,2.9543,2.9541,2.9544,2.9532,2.9524,2.952,2.9557,2.9557,2.9557,2.9557,0,0,2.9767,2.9738,2.9734,2.9723,2.97,2.9686,2.9667,2.9645,2.9634,2.9616,2.9599,2.957,2.9569,2.9554,2.9545,2.9532,2.9515,2.9531,2.953,2.9528,2.9486,2.9486,2.9483,2.9511,2.951,2.951,2.9487,0,2.9751,2.972,2.9709,2.9682,2.9665,2.9656,2.964,2.9622,2.9611,2.9593,2.9579,2.9559,2.9559,2.955,2.9536,2.952,2.9506,2.9522,2.9493,2.9492,2.9498,2.9479,2.948,2.9459,2.9484,2.9483,2.9483,0,2.9728,2.9711,2.9683,2.9661,2.9654,2.9639,2.9617,2.9602,2.9581,2.9573,2.9557,2.9548,2.9526,2.953,2.9498,2.9509,2.9496,2.9486,2.9485,2.9481,2.9486,2.9473,2.9453,2.9449,2.9478,2.9478,2.9479,0,2.9723,2.9693,2.9672,2.9662,2.9637,2.9626,2.9615,2.9595,2.9582,2.9562,2.9553,2.953,2.9518,2.9499,2.9484,2.9488,2.9452,2.9456,2.9443,2.9443,2.9435,2.9436,2.9411,2.9429,2.9429,2.9429,2.9429,0,2.9705,2.9688,2.9669,2.9656,2.9636,2.9622,2.9602,2.9589,2.9572,2.9554,2.9545,2.9528,2.9509,2.9489,2.9477,2.9451,2.9446,2.9437,2.9434,2.9437,2.9438,2.9428,2.9429,2.9428,2.9428,2.9429,2.9429,0,2.9696,2.9683,2.9659,2.9637,2.963,2.9616,2.9596,2.9582,2.9569,2.9547,2.9541,2.9521,2.9497,2.948,2.9449,2.944,2.9412,2.941,2.942,2.9418,2.9406,2.9407,2.9373,2.9368,2.939,2.939,2.939,0,2.9685,2.9672,2.9648,2.9637,2.9626,2.9608,2.9594,2.958,2.9566,2.9541,2.953,2.9506,2.9486,2.9448,2.9429,2.9404,2.94,2.939,2.9396,2.94,2.9398,2.9399,2.9397,2.9389,2.9388,2.9388,2.9388,0,2.9668,2.9662,2.9644,2.9624,2.9609,2.9592,2.9574,2.9565,2.9547,2.9532,2.9508,2.9493,2.9461,2.9437,2.941,2.9396,2.9388,2.9387,2.9382,2.9385,2.9391,2.9387,2.9416,2.9387,2.9387,2.9387,2.9387,2.9387,2.9656,2.9644,2.9625,2.9605,2.9591,2.9575,2.956,2.9546,2.9527,2.9501,2.9493,2.9468,2.9446,2.941,2.9395,2.9374,2.9374,2.9368,2.9366,2.9365,2.9364,2.9396,2.9369,2.9369,2.9369,2.9369,2.9369,0,2.9637,2.9625,2.9607,2.9583,2.9567,2.9563,2.9543,2.953,2.9508,2.9489,2.947,2.9442,2.9417,2.9397,2.9371,2.9358,2.9353,2.9351,2.9351,2.9348,2.9366,2.9372,2.9355,2.9355,2.9355,2.9355,2.9355,2.9355,2.9625,2.9603,2.9595,2.9565,2.9551,2.9528,2.9517,2.9501,2.9486,2.9455,2.9436,2.9423,2.9402,2.9375,2.9351,2.9346,2.9336,2.9334,2.9327,2.9345,2.9347,2.9348,2.9354,2.9333,2.9333,2.931,2.931,2.931]}]]